This is the latest recevied weather packets stored in our database for station/object M0JUI-1. If no packets are shown the sender has not sent any weather packets the latest 10 day(s).
| Time | Temp. | Humidity | Pressure | Rain* | Wind** | Luminosity | Snow |
|---|---|---|---|---|---|---|---|
| 1778139807 | 7.78° C | 14% | 1016.4 hPa | 0 mm | - | 152 W/m² | - |
| 1778139507 | 7.78° C | 14% | 1016.3 hPa | 0 mm | - | 135 W/m² | - |
| 1778139208 | 7.22° C | 13% | 1016.3 hPa | 0 mm | - | 121 W/m² | - |
| 1778138907 | 7.22° C | 11% | 1016.3 hPa | 0 mm | - | 118 W/m² | - |
| 1778138608 | 7.22° C | 11% | 1016.2 hPa | 0 mm | - | 124 W/m² | - |
| 1778138308 | 7.22° C | 10% | 1016.4 hPa | 0 mm | - | 130 W/m² | - |
| 1778138008 | 6.67° C | 7% | 1016.2 hPa | 0 mm | - | 127 W/m² | - |
| 1778137708 | 6.67° C | 8% | 1016.1 hPa | 0 mm | - | 117 W/m² | - |
| 1778137396 | 6.67° C | 4% | 1016.3 hPa | 0 mm | - | 112 W/m² | - |
| 1778137096 | 6.11° C | 3% | 1016 hPa | 0 mm | - | 102 W/m² | - |
| 1778136795 | 6.11° C | 3% | 1016.1 hPa | 0 mm | - | 96 W/m² | - |
| 1778136496 | 6.11° C | 1% | 1016 hPa | 0 mm | - | 91 W/m² | - |
| 1778136195 | 6.11° C | 1% | 1016.1 hPa | 0 mm | - | 82 W/m² | - |
| 1778135896 | 6.11° C | 1% | 1016.2 hPa | 0 mm | - | 78 W/m² | - |
| 1778135595 | 6.11° C | 1% | 1016.2 hPa | 0 mm | - | 67 W/m² | - |
| 1778135284 | 6.11° C | 1% | 1016.1 hPa | 0 mm | - | 65 W/m² | - |
| 1778134983 | 6.11° C | 1% | 1016 hPa | 0 mm | - | 57 W/m² | - |
| 1778134684 | 5.56° C | 1% | 1016.2 hPa | 0 mm | - | 53 W/m² | - |
| 1778134371 | 5.56° C | 1% | 1016 hPa | 0 mm | - | 49 W/m² | - |
| 1778134071 | 5.56° C | 1% | 1016.1 hPa | 0 mm | - | 47 W/m² | - |
| 1778133772 | 5.56° C | 1% | 1016.1 hPa | 0 mm | - | 45 W/m² | - |
| 1778133459 | 5.56° C | 1% | 1016.1 hPa | 0 mm | - | 42 W/m² | - |
| 1778133159 | 5.56° C | 1% | 1016.1 hPa | 0 mm | - | 40 W/m² | - |
| 1778132859 | 5.56° C | 1% | 1016 hPa | 0 mm | - | 36 W/m² | - |
| 1778132559 | 5.56° C | 1% | 1016 hPa | 0 mm | - | 32 W/m² | - |
* Rain latest hour (hover to see other rain measurements)
** Current wind speed in m/s (hover to see current wind gust speed)